Location: Gleizolles
(44.4833°N, 6.7667°E)
Time: 20:35:32
(UTC+00:00)

A-11 Canister half - Pass Details

Date: 28 June 2024
Orbit: 1524 x 1684 km, 47.3° (Epoch: 18 July)

Event Time Altitude Azimuth Distance (km) Brightness Sun altitude
Rises 11:26:38 0° 243° (WSW) 4,777 11.7 68.7°
Reaches altitude 10° 11:29:44 10° 243° (WSW) 3,773 11.3 68.7°
Maximum altitude 11:39:17 84° 157° (SSE) 1,556 11.1 68.7°
Drops below altitude 10° 11:48:37 10° 71° (ENE) 3,696 11.0 68.6°
Sets 11:51:38 0° 71° (ENE) 4,676 11.4 68.5°
